Location: Andiroba
(19.8650°S, 43.9258°W)
Time: 00:41:08
(UTC+00:00)

Cosmos 1842 Rocket - Pass Details

Date: 15 June 2024
Orbit: 603 x 629 km, 82.5° (Epoch: 24 July)

Event Time Altitude Azimuth Distance (km) Brightness Sun altitude
Rises 08:55:32 0° 353° (N) 2,862 7.2 -7.9°
Reaches altitude 10° 08:57:44 10° 352° (N) 1,969 6.3 -7.4°
Maximum altitude 09:02:06 79° 266° (W) 638 3.5 -6.5°
Drops below altitude 10° 09:06:33 10° 178° (S) 2,009 6.0 -5.5°
Sets 09:08:49 0° 177° (S) 2,926 6.8 -5.0°
